Memphis Intl METAR: 301454Z 11004KT 10SM FEW250 13/06 A3017 RMK AO2 SLP214 T01330056 50003
>>>

 

 

 

 

FedEx Virtual Air

ID:
formbrace1
formbrace2

 

Password:
formbrace1
formbrace2


  Contact Us
  Join Our Team
 
  Newsroom

 

Vatsim
  All FedEx Express Virtual Cargo simulations are conducted online through the worldwide VATSIM network.  

 



Being a cargo airline means that we have a unique advantage over the typical virtual airline when it comes to international and domestic routes. We offer one of the most flexible route systems in the world, offering short domestic routes, all the way to overseas long haul destinations.
FedEx operates the world's largest fleet of aircraft, employing over 650 jet, and turboprop aircraft. This includes the Boeing 777, Airbus 310, and much more.

We are proud to offer the entire FedEx fleet to our pilots.

As a member of the FedEx Virtual Cargo team, one on one training is available to you if needed. We are always looking for experienced flight simulator pilots to join our training staff. if you are interested in a staff position, or would like further information, please contact our training department.

 

This website is owned and operated solely by flight simulator enthusiasts and is in no way affiliated with FedEx, or any of its affiliates or partners. All logos and images are used with permission from their owner, and are copyright their respective owner. Review license agreement.